Location: Unspecified
(50.7693°N, 0.0000°E)
Time: 17:34:15
(UTC+00:00)

Transit 4A - Pass Details

Date: 27 June 2019
Orbit: 863 x 981 km, 66.8° (Epoch: 22 August)

Event Time Altitude Azimuth Distance (km) Brightness Sun altitude
Rises 13:25:52 0° 318° (NW) 3,695 11.0 58.2°
Reaches altitude 10° 13:28:49 10° 329° (NNW) 2,744 10.4 57.9°
Maximum altitude 13:34:25 30° 30° (NNE) 1,671 9.3 57.3°
Drops below altitude 10° 13:39:55 10° 90° (E) 2,702 10.2 56.8°
Sets 13:42:47 0° 101° (E) 3,629 10.8 56.4°
